Ironwood, MI

6:02 PM CDT on June 23, 2017 (GMT -0500)
Gogebic-Iron County

Weather History for KIWD - September, 2013

Change the Weather History Date:

Sunday, September 1, 2013

  Actual Average Record
Temperature  
Mean Temperature 62 °F -  
Max Temperature 69 °F 72 °F 86 °F (2008)
Min Temperature 55 °F 51 °F 39 °F (2001)
Degree Days  
Heating Degree Days 3    
Growing Degree Days 12 (Base 50)    
Moisture  
Dew Point 58 °F    
Average Humidity 80    
Maximum Humidity 88    
Minimum Humidity 64    
Precipitation  
Precipitation 0.00 in - - ()
Sea Level Pressure  
Sea Level Pressure 29.77 in    
Wind  
Wind Speed 8 mph (WNW)    
Max Wind Speed 17 mph    
Max Gust Speed 23 mph    
Visibility 9 miles    
Events      
Averages and records for this station are not official NWS values.
T = Trace of Precipitation, MM = Missing Value Source: NWS Daily Summary

Daily Weather History Graph

Daily Weather History Graph

Search for Another Location

Airport or City:

Trip Planner

Search our weather history database for the weather conditions in past years. The results will help you decide how hot, cold, wet, or windy it might be!

Date:

Astronomy

Sep. 01, 2013 Rise Set
Actual Time 6:20 AM CDT 7:39 PM CDT
Civil Twilight 5:49 AM CDT 8:10 PM CDT
Nautical Twilight 5:11 AM CDT 8:47 PM CDT
Astronomical Twilight 4:31 AM CDT 9:27 PM CDT
Moon 2:34 AM CDT (9/1) 5:23 PM CDT (9/1)
Length of Visible Light 14h 20m
Length of Day
13h 18m
Waning Crescent, 13% of the Moon is Illuminated
Sep 1
Waning Crescent
Sep 5
New
Sep 12
First Quarter
Sep 19
Full
Sep 26
Last Quarter

Hourly Weather History & Observations

Time (CDT) Temp. Dew Point Humidity Pressure Visibility Wind Dir Wind Speed Gust Speed Precip Events Conditions
12:15 AM 69.8 °F 59.0 °F 68% 29.68 in 10.0 mi Calm Calm - N/A   Mostly Cloudy
12:35 AM 66.2 °F 60.8 °F 83% 29.71 in 10.0 mi West 15.0 mph 21.9 mph N/A   Overcast
12:55 AM 66.2 °F 59.0 °F 78% 29.70 in 10.0 mi WSW 3.5 mph - N/A   Mostly Cloudy
1:15 AM 66.2 °F 60.8 °F 83% 29.70 in 10.0 mi South 4.6 mph - N/A   Overcast
1:35 AM 66.2 °F 60.8 °F 83% 29.71 in 10.0 mi South 8.1 mph - N/A   Scattered Clouds
1:55 AM 68.0 °F 60.8 °F 78% 29.70 in 10.0 mi WSW 5.8 mph - N/A   Scattered Clouds
2:15 AM 66.2 °F 59.0 °F 78% 29.70 in 10.0 mi WSW 4.6 mph - N/A   Clear
2:35 AM 66.2 °F 59.0 °F 78% 29.69 in 10.0 mi SSW 3.5 mph - N/A   Clear
2:55 AM 64.4 °F 57.2 °F 77% 29.69 in 10.0 mi Calm Calm - N/A   Clear
3:15 AM 62.6 °F 59.0 °F 88% 29.68 in 10.0 mi Calm Calm - N/A   Scattered Clouds
3:35 AM 66.2 °F 60.8 °F 83% 29.67 in 10.0 mi South 4.6 mph - N/A   Partly Cloudy
3:55 AM 66.2 °F 60.8 °F 83% 29.67 in 10.0 mi SSW 5.8 mph - N/A   Mostly Cloudy
4:15 AM 66.2 °F 60.8 °F 83% 29.66 in 10.0 mi SSW 6.9 mph - N/A   Mostly Cloudy
4:35 AM 66.2 °F 60.8 °F 83% 29.67 in 10.0 mi SW 10.4 mph - N/A   Mostly Cloudy
4:55 AM 66.2 °F 60.8 °F 83% 29.66 in 10.0 mi SW 9.2 mph - N/A   Scattered Clouds
5:15 AM 66.2 °F 60.8 °F 83% 29.66 in 10.0 mi SW 10.4 mph - N/A   Scattered Clouds
5:35 AM 66.2 °F 60.8 °F 83% 29.67 in 10.0 mi SW 10.4 mph - N/A   Mostly Cloudy
5:55 AM 66.2 °F 60.8 °F 83% 29.67 in 10.0 mi SW 12.7 mph - N/A   Mostly Cloudy
6:15 AM 66.2 °F 60.8 °F 83% 29.68 in 10.0 mi WSW 17.3 mph 21.9 mph N/A   Overcast
6:35 AM 64.4 °F 60.8 °F 88% 29.68 in 10.0 mi West 13.8 mph 20.7 mph N/A   Overcast
6:55 AM 64.4 °F 60.8 °F 88% 29.68 in 10.0 mi WSW 17.3 mph 20.7 mph N/A   Overcast
7:15 AM 64.4 °F 60.8 °F 88% 29.68 in 10.0 mi WSW 15.0 mph 19.6 mph N/A   Overcast
7:35 AM 64.4 °F 59.0 °F 83% 29.69 in 10.0 mi WSW 13.8 mph - N/A   Overcast
7:55 AM 64.4 °F 59.0 °F 83% 29.70 in 10.0 mi West 16.1 mph 19.6 mph N/A   Overcast
8:15 AM 64.4 °F 60.8 °F 88% 29.70 in 10.0 mi West 15.0 mph - N/A   Overcast
8:35 AM 64.4 °F 59.0 °F 83% 29.71 in 10.0 mi West 11.5 mph 19.6 mph N/A   Overcast
8:55 AM 64.4 °F 59.0 °F 83% 29.71 in 10.0 mi West 17.3 mph 20.7 mph N/A   Overcast
9:15 AM 64.4 °F 59.0 °F 83% 29.71 in 10.0 mi West 15.0 mph - N/A   Overcast
9:35 AM 64.4 °F 59.0 °F 83% 29.72 in 10.0 mi West 13.8 mph 20.7 mph N/A   Overcast
9:55 AM 64.4 °F 57.2 °F 77% 29.73 in 10.0 mi WNW 12.7 mph 18.4 mph N/A   Overcast
10:15 AM 64.4 °F 57.2 °F 77% 29.73 in 10.0 mi WNW 11.5 mph 17.3 mph N/A   Overcast
10:35 AM 64.4 °F 57.2 °F 77% 29.73 in 10.0 mi WNW 12.7 mph 18.4 mph N/A   Overcast
10:55 AM 64.4 °F 57.2 °F 77% 29.75 in 10.0 mi WNW 9.2 mph - N/A   Overcast
11:15 AM 64.4 °F 57.2 °F 77% 29.75 in 10.0 mi WNW 6.9 mph - N/A   Overcast
11:35 AM 64.4 °F 57.2 °F 77% 29.75 in 10.0 mi WNW 10.4 mph - N/A   Overcast
11:55 AM 66.2 °F 57.2 °F 73% 29.76 in 10.0 mi WNW 11.5 mph - N/A   Overcast
12:15 PM 66.2 °F 59.0 °F 78% 29.76 in 10.0 mi WNW 10.4 mph 20.7 mph N/A   Overcast
12:35 PM 66.2 °F 57.2 °F 73% 29.76 in 10.0 mi WNW 16.1 mph - N/A   Overcast
12:55 PM 68.0 °F 60.8 °F 78% 29.77 in 10.0 mi WNW 15.0 mph 19.6 mph N/A   Overcast
1:15 PM 66.2 °F 57.2 °F 73% 29.77 in 10.0 mi NNW 15.0 mph 18.4 mph N/A   Overcast
1:35 PM 69.8 °F 59.0 °F 68% 29.77 in 10.0 mi WNW 12.7 mph - N/A   Mostly Cloudy
1:55 PM 69.8 °F 57.2 °F 64% 29.78 in 10.0 mi NNW 13.8 mph 18.4 mph N/A   Mostly Cloudy
2:15 PM 69.8 °F 57.2 °F 64% 29.78 in 10.0 mi NW 10.4 mph 18.4 mph N/A   Mostly Cloudy
2:35 PM 69.8 °F 57.2 °F 64% 29.78 in 10.0 mi WNW 11.5 mph - N/A   Mostly Cloudy
2:55 PM 69.8 °F 57.2 °F 64% 29.78 in 10.0 mi NNW 10.4 mph - N/A   Overcast
3:15 PM 69.8 °F 57.2 °F 64% 29.78 in 10.0 mi NW 10.4 mph - N/A   Overcast
3:35 PM 68.0 °F 57.2 °F 68% 29.78 in 10.0 mi NW 8.1 mph - N/A   Overcast
3:55 PM 68.0 °F 57.2 °F 68% 29.78 in 10.0 mi NW 5.8 mph - N/A   Overcast
4:15 PM 69.8 °F 57.2 °F 64% 29.79 in 10.0 mi WNW 6.9 mph - N/A   Overcast
4:35 PM 68.0 °F 57.2 °F 68% 29.79 in 10.0 mi NW 5.8 mph - N/A   Overcast
4:55 PM 68.0 °F 57.2 °F 68% 29.79 in 10.0 mi WNW 5.8 mph - N/A   Overcast
5:15 PM 66.2 °F 57.2 °F 73% 29.80 in 10.0 mi NW 6.9 mph - N/A   Mostly Cloudy
5:35 PM 64.4 °F 59.0 °F 83% 29.80 in 10.0 mi NW 6.9 mph - N/A   Mostly Cloudy
5:55 PM 64.4 °F 60.8 °F 88% 29.81 in 10.0 mi NNW 11.5 mph 17.3 mph N/A   Overcast
6:15 PM 62.6 °F 59.0 °F 88% 29.82 in 10.0 mi NW 10.4 mph - N/A   Overcast
6:35 PM 62.6 °F 57.2 °F 82% 29.83 in 6.0 mi NNW 17.3 mph 23.0 mph N/A   Overcast
6:55 PM 60.8 °F 57.2 °F 88% 29.84 in 4.0 mi NNW 11.5 mph 17.3 mph N/A   Mostly Cloudy
7:15 PM 60.8 °F 55.4 °F 82% 29.85 in 9.0 mi NW 10.4 mph - N/A   Overcast
7:35 PM 60.8 °F 55.4 °F 82% 29.86 in 10.0 mi NW 12.7 mph - N/A   Overcast
7:55 PM 60.8 °F 55.4 °F 82% 29.86 in 10.0 mi NW 9.2 mph 17.3 mph N/A   Overcast
8:15 PM 60.8 °F 55.4 °F 82% 29.87 in 10.0 mi NNW 10.4 mph - N/A   Overcast
8:35 PM 60.8 °F 53.6 °F 77% 29.88 in 7.0 mi NNW 6.9 mph - N/A   Overcast
8:55 PM 59.0 °F 53.6 °F 82% 29.88 in 3.0 mi ENE 8.1 mph - N/A   Overcast
9:15 PM 59.0 °F 55.4 °F 88% 29.89 in 3.0 mi North 8.1 mph - N/A   Overcast
9:35 PM 57.2 °F 53.6 °F 88% 29.90 in 3.0 mi NNE 5.8 mph - N/A   Overcast
9:55 PM 57.2 °F 53.6 °F 88% 29.90 in 5.0 mi North 11.5 mph 16.1 mph N/A   Mostly Cloudy
10:15 PM 57.2 °F 53.6 °F 88% 29.91 in 8.0 mi North 3.5 mph - N/A   Overcast
10:35 PM 57.2 °F 53.6 °F 88% 29.91 in 7.0 mi NNW 8.1 mph - N/A   Mostly Cloudy
10:55 PM 55.4 °F 51.8 °F 88% 29.92 in 10.0 mi North 6.9 mph - N/A   Overcast
11:15 PM 55.4 °F 51.8 °F 88% 29.92 in 5.0 mi North 5.8 mph - N/A   Overcast
11:35 PM 55.4 °F 51.8 °F 88% 29.93 in 3.0 mi NNW 4.6 mph - N/A   Overcast
11:55 PM 55.4 °F 51.8 °F 88% 29.93 in 5.0 mi NNW 6.9 mph - N/A   Overcast